Current Conditions for Foresthill, CA. Clear skies, Dry   
Visibility: 10 miles
Foresthill Advisory text:

  Summary / Temperature 

Current Temperature
58.0°F
14.4°C
(24/hr Ago)
51.7°F
(Apparent temp)
54.8°F
Cool
Wind Chill Graphs
58.0°F 

59.5°F/ 15.3°C
 --- Virtual Temp: 60.5°F ---

 Temp Rate:

 24/hr Difference:

 Avg Running Temp:

 Todays High:

 Todays Low:

 Y-days High:

 Y-days Low:

 Todays WChill:

 Y-days WChill:

 Evapotranspiration:

0°F/hr 

+6.3°F

58.2°F

65.7°F 1:45pm

50.7°F 3:54am

51.9°F 8:59pm

47.6°F 4:33am

45.2°F 7:06am

40.7°F 5:33am

0.059 in

115' Above Ground

 Temperature:

 6'AGL VRS 115'AGL:

 Avg Running Temp:

 Humidity:

 Todays High:

 Todays Low:

 Y-days High:

 Y-days Low:

62.0°F 

+4°F

62.7°F

55% 

74.0°F 1:05pm

54.0°F 2:38am

55.0°F 10:56pm

48.0°F 7:02am

Temp & Humidity Graphs

  Wind 

Wind Speed

 8.0 mph

Gusting to

 16.0 mph

Wind from E

95°  E

Gentle breeze

 Avg speed:

 Wind Run:

 Peak Gust:

  5.0 mph 

49.0 miles

  19.0 mph 7:01am

  Almanac  

Moon age: 3 days,8 hours,33 minutes,12%

Waxing Crescent
12%
Illuminated
3 days in cycle

 Moonrise:

 Moonset:

 Sunrise:

 Sunset:

 Solar Noon:

9:29am

7:31pm

6:53am

4:45pm

11:50am

1min 38s less daylight tomorrow 

  Solar Radiation 

(Current Solar)
  No Sun Light
(Todays High)
 643 W/m2@11:58am

Rain

 Rain Today:

 Rain Rate (/hr):

 Rain last hour:

 Rain Yesterday:

 This Month:

 Season Total:

1 Day Since Last Dry Day

0.01 in

0.000 in

0.00 in

0.21 in

9.17 in

9.98 in

Updated Time

Updated: 11/21/17  9:46pm

(Updated  sec ago)

Humidity & Barometer

 Humidity:

 Wetbulb:

 Dew Point:

 Barometer:

70% 

52.8°F 

48.3°F 

30.226 inHg 

 Baro Trend:  Steady 
Northern Calif
Preparedness
Fire 
Level 

    UV Index  

(Current UV)
0.0  None
(Todays High) @ 11:57am
3.1   Medium

National Weather Service Forecast

Tonight

Tonight: Partly Cloudy
Partly Cloudy
Wednesday

Wednesday: Mostly Sunny
Mostly Sunny
Wednesday
Night
Wednesday Night: Partly Cloudy
Partly Cloudy
Thanksgiving
Day
Thanksgiving Day: Slight Chance Light Rain
Slight Chance Light Rain
Thursday
Night
Thursday Night: Mostly Cloudy
Mostly Cloudy
Friday

Friday: Partly Sunny
Partly Sunny
Lo 54 °F Hi 71 °F Lo 54 °F Hi 67 °F Lo 50 °F Hi 64 °F

Foresthill Probe 2 Stats  
Foresthill Probe 2: is located on Thomas Street
at 3000 feet. The main Foresthill Weather site
is located on Melody ln at the 2860 foot elevation

Calm
56.5°F
13.6°C
Temp Rate:
-0.1°F
Calm
Gusting to
3.0 mph
(Humidity)
76%
Wind from SE
136°  SE
Updated: 21/11/17 - 21:42:41
 Todays High: 65.6°F 12:26
 Todays Low: 49.7°F 04:13
 Rain Today: 0.01 in
 Season Total: 10.43 in

Foresthill Wx: Monthly,Yearly, Highs and Lows 

Foresthill  
This Weather Data is coming from the main Foresthill
Weather site located on Melody ln at the 2860 foot
elevation
Not Foresthill Probe 2
Weather Data
Month
  High
Month
  Low
Year
High
Year
Low
Temp 65.7°F
11/21/17
37.5°F
11/5/17
100.8°F
8/28/17
27.6°F
2/24/17
Humidity 96%
11/20/17
48%
11/19/17
100%
1/1/17
12%
8/30/17
Heat Index 68.7°F
11/21/17
42.8°F
11/18/17
97.6°F
6/19/17
32.5°F
2/24/17
Wind Chill 65.7°F
11/21/17
31.2°F
11/5/17
100.8°F
8/28/17
14.0°F
2/24/17
Wind Gust 33 mph
11/9/17
0 mph
11/1/17
53 mph
10/8/17
0 mph
1/1/17
Barometer 30.33 in
11/18/17
29.84 in
11/16/17
30.69 in
1/27/17
29.29 in
2/17/17
ET 0.08 in
11/1/17
0.00 in
11/1/17
0.28 in
7/17/17
0.00 in
1/1/17
Dew Point 59.0°F
11/21/17
29.3°F
11/8/17
69.7°F
6/19/17
13.1°F
10/9/17
Pacific Satellite US Radar Satellite Imagery Sacramento,CA.  (click to enlarge)
NWS Weather Forecast - Summary
Updated: Tue Nov 21, 2017 - 2:42pm (PST)
Current Interstate Highway Conditions for I-80 & US-50

[I 80: IN THE SAN FRANCISCO BAY AREA - SOLANO CO]
no traffic restrictions are reported for this area.

[I 80: IN THE NORTHERN CALIFORNIA AREA & SIERRA NEVADA]
no traffic restrictions are reported for this area.

[US 50: IN THE SACRAMENTO VALLEY & THE LAKE TAHOE BASIN]
no traffic restrictions are reported for this area.
NWS Weather Forecast: Tonight and Wednesday (Updated: Tue, 21-Nov-2017 8:11pm PST)
Tonight

Tonight: Partly Cloudy
Partly Cloudy

Lo 54 °F
NWS forecast: Partly cloudy, with a low around 54. East northeast wind 5 to 8 mph.
Wednesday

Wednesday: Mostly Sunny
Mostly Sunny

Hi 71 °F
NWS forecast: Mostly sunny. High near 71, with temperatures falling to around 66 in the afternoon. Southeast wind 2 to 7 mph.
YR.NO 10 Day Weather forecast
Last update: 11/21/2017 @ 11:38
Next update: 11/22/2017 @ 00:00
Provided by: 22
      Temperature Precipitation Pressure Wind  
Today
11/21/2017
20:00 00:00 46°F   30.15 inHg Light air from east-northeast 3 mph
    (Click to enlarge)
meteogram

    Forecast for next 9 days

      Temperature Precip Pressure Wind  
Wednesday
11/22/2017
00:00 06:00 46°F   30.17 inHg Light breeze from east-northeast 6 mph
  06:00 12:00 48°F   30.12 inHg Light breeze from east-northeast 7 mph
  12:00 18:00 72°F   30.14 inHg Light air from south-southwest 3 mph
  18:00 00:00 57°F   30.10 inHg Light breeze from east-northeast 4 mph
      Temperature Precip Pressure Wind  
Thursday
11/23/2017
00:00 06:00 48°F   30.13 inHg Light breeze from east-northeast 6 mph
  06:00 12:00 45°F   30.10 inHg Light breeze from east-northeast 5 mph
  12:00 18:00 68°F   30.12 inHg Light air from west 3 mph
  18:00 00:00 59°F   30.09 inHg Light air from southeast 1 mph
      Temperature Precip Pressure Wind  
Friday
11/24/2017
00:00 06:00 48°F   30.09 inHg Light air from east-northeast 3 mph
  04:00 10:00 43°F   30.06 inHg Light breeze from east-northeast 5 mph
  10:00 16:00 61°F   30.09 inHg Light air from south-southeast 2 mph
  16:00 22:00 59°F   30.02 inHg Light air from south-southwest 1 mph
  22:00 04:00 45°F   30.01 inHg Light breeze from east-northeast 6 mph
      Temperature Precip Pressure Wind  
Saturday
11/25/2017
04:00 10:00 48°F   29.92 inHg Light breeze from east-northeast 6 mph
  10:00 16:00 64°F   29.98 inHg Light breeze from south-southeast 4 mph
  16:00 22:00 59°F 0.09 in 30.01 inHg Light air from southwest 2 mph
  22:00 04:00 52°F 0.10 in 30.12 inHg Light air from east-northeast 2 mph
      Temperature Precip Pressure Wind  
Sunday
11/26/2017
04:00 10:00 50°F 0.18 in 30.07 inHg Light air from east 1 mph
  10:00 16:00 54°F 0.11 in 30.05 inHg Gentle breeze from east-southeast 9 mph
  16:00 22:00 50°F 0.33 in 30.04 inHg Light breeze from south-southwest 4 mph
  22:00 04:00 48°F 0.40 in 30.01 inHg Gentle breeze from south 9 mph
      Temperature Precip Pressure Wind  
Monday
11/27/2017
04:00 10:00 39°F 0.05 in 30.13 inHg Gentle breeze from southwest 10 mph
  10:00 16:00 41°F   30.30 inHg Light air from south 2 mph
  16:00 22:00 43°F   30.26 inHg Light breeze from west-northwest 4 mph
  22:00 04:00 34°F   30.26 inHg Light breeze from northeast 6 mph
      Temperature Precip Pressure Wind  
Tuesday
11/28/2017
04:00 10:00 41°F   30.12 inHg Light breeze from northeast 7 mph
  10:00 16:00 54°F   30.15 inHg Light air from east 2 mph
  16:00 22:00 50°F   30.11 inHg Light air from south-southwest 3 mph
  22:00 04:00 37°F   30.16 inHg Light breeze from east-northeast 6 mph
      Temperature Precip Pressure Wind  
Wednesday
11/29/2017
04:00 10:00 32°F   30.15 inHg Light breeze from east-northeast 4 mph
  10:00 16:00 55°F   30.18 inHg Light air from north-northeast 2 mph
  16:00 22:00 50°F   30.11 inHg Light breeze from west-northwest 4 mph
  22:00 04:00 45°F   30.12 inHg Gentle breeze from east-northeast 12 mph
      Temperature Precip Pressure Wind  
Thursday
11/30/2017
04:00 10:00 39°F   30.11 inHg Gentle breeze from northeast 9 mph
  10:00 16:00 46°F   30.17 inHg Gentle breeze from northeast 10 mph
  16:00 22:00 43°F   30.15 inHg Gentle breeze from north-northeast 9 mph
  22:00 04:00 37°F   30.22 inHg Light breeze from north 5 mph

NOAA Local Storm Report
KIRKWOOD   ( More )
DATE
11/17/2017
TIME
11:30 AM
COUNTY
EL DORADO
STATE
CA
GEOGRAPHIC
38.70N 120.07W
SOURCE
PUBLIC
HEAVY SNOW MEASURED AT 16.0 INCH
48 hour snow total at kirkwood ski resort. The duration of the heavy snow event was 48 hours.
How Close Are We To this Month's Temperature Record ?
Updated Tuesday, Nov 21, 2017- 9:40:01 PM

Current Temperature: 58.0°F

November's High: Temperature Record 72.8°F - Set on Tue, Nov 6, 2012 - 1:46:00 PM
We are currently 14.8°F Less than this Month's record High

November's Low: Temperature Record 28.9°F - Set on Thu, Nov 26, 2015 - 6:22:00 AM
We are currently 29.1°F More than this Month's record Low

Weather History For Tuesday, November 21, 2017


On this Day - In Weather History ...
Data courtesy of weatherforyou.com
powered by Cumulus v1.9.3 (1059)
Ambient Weather VWS v14.00
Top Contact Website Map Copyright © 2007 - 2017 Foresthillweather.com Never base important decisions on this or any weather information obtained from the Internet